Time,TemperatureF,DewpointF,PressureIn,WindDirection,WindDirectionDegrees,WindSpeedMPH,WindSpeedGustMPH,Humidity,HourlyPrecipIn,Conditions,Clouds,dailyrainin,SoftwareType,DateUTC
2013-05-22 00:05:00,67.7,65.0,29.80,SSW,196,0.0,0.0,90,0.00,,,0.00,weatherlink.com 1.10,2013-05-22 04:05:00,
2013-05-22 00:20:00,67.6,65.0,29.80,SSW,196,0.0,0.0,90,0.00,,,0.00,weatherlink.com 1.10,2013-05-22 04:20:00,
2013-05-22 00:35:00,67.6,64.0,29.81,SSW,196,0.0,0.0,89,0.00,,,0.00,weatherlink.com 1.10,2013-05-22 04:35:00,
2013-05-22 00:50:00,67.5,64.0,29.80,SSW,196,0.0,0.0,89,0.00,,,0.00,weatherlink.com 1.10,2013-05-22 04:50:00,
2013-05-22 01:05:00,67.4,64.0,29.80,SSW,196,0.0,0.0,89,0.00,,,0.00,weatherlink.com 1.10,2013-05-22 05:05:00,
2013-05-22 01:20:00,67.1,64.0,29.79,SSW,196,0.0,0.0,89,0.00,,,0.00,weatherlink.com 1.10,2013-05-22 05:20:00,
2013-05-22 01:35:00,66.8,64.0,29.79,SSW,196,0.0,0.0,89,0.00,,,0.00,weatherlink.com 1.10,2013-05-22 05:35:00,
2013-05-22 01:50:00,66.6,63.0,29.78,SSW,196,0.0,0.0,89,0.00,,,0.00,weatherlink.com 1.10,2013-05-22 05:50:00,
2013-05-22 02:05:00,66.3,63.0,29.77,SSW,196,0.0,0.0,89,0.00,,,0.00,weatherlink.com 1.10,2013-05-22 06:05:00,
2013-05-22 02:20:00,66.1,63.0,29.77,SSW,196,0.0,0.0,89,0.00,,,0.00,weatherlink.com 1.10,2013-05-22 06:20:00,
2013-05-22 02:35:00,65.9,63.0,29.77,SSW,196,0.0,0.0,89,0.00,,,0.00,weatherlink.com 1.10,2013-05-22 06:35:00,
2013-05-22 02:51:00,65.7,62.0,29.77,SSW,196,0.0,0.0,89,0.00,,,0.00,weatherlink.com 1.10,2013-05-22 06:51:00,
2013-05-22 03:06:00,65.7,62.0,29.77,SSW,196,0.0,0.0,89,0.00,,,0.00,weatherlink.com 1.10,2013-05-22 07:06:00,
2013-05-22 03:21:00,65.7,62.0,29.77,SSW,196,0.0,0.0,89,0.00,,,0.00,weatherlink.com 1.10,2013-05-22 07:21:00,
2013-05-22 03:36:00,65.7,62.0,29.76,SSW,196,0.0,0.0,89,0.00,,,0.00,weatherlink.com 1.10,2013-05-22 07:36:00,
2013-05-22 03:51:00,65.4,62.0,29.75,SSW,196,0.0,0.0,89,0.00,,,0.00,weatherlink.com 1.10,2013-05-22 07:51:00,
2013-05-22 04:06:00,65.3,62.0,29.75,SSW,196,0.0,0.0,89,0.00,,,0.00,weatherlink.com 1.10,2013-05-22 08:06:00,
2013-05-22 04:21:00,65.0,62.0,29.75,SSW,196,0.0,0.0,90,0.00,,,0.00,weatherlink.com 1.10,2013-05-22 08:21:00,
2013-05-22 04:36:00,64.8,62.0,29.74,SSW,196,0.0,0.0,90,0.00,,,0.00,weatherlink.com 1.10,2013-05-22 08:36:00,
2013-05-22 04:51:00,64.7,62.0,29.76,SSW,196,0.0,0.0,90,0.00,,,0.00,weatherlink.com 1.10,2013-05-22 08:51:00,
2013-05-22 05:06:00,64.4,62.0,29.77,SSW,196,0.0,0.0,91,0.00,,,0.00,weatherlink.com 1.10,2013-05-22 09:06:00,
2013-05-22 05:21:00,64.1,62.0,29.77,SSW,196,0.0,0.0,92,0.00,,,0.00,weatherlink.com 1.10,2013-05-22 09:21:00,
2013-05-22 05:36:00,64.1,62.0,29.76,SSW,196,0.0,0.0,92,0.00,,,0.00,weatherlink.com 1.10,2013-05-22 09:36:00,
2013-05-22 05:51:00,64.2,62.0,29.77,SSW,196,0.0,0.0,92,0.00,,,0.00,weatherlink.com 1.10,2013-05-22 09:51:00,
2013-05-22 06:06:00,64.2,62.0,29.77,SSW,196,0.0,0.0,92,0.00,,,0.00,weatherlink.com 1.10,2013-05-22 10:06:00,
2013-05-22 06:21:00,64.1,62.0,29.77,SSW,196,0.0,0.0,92,0.00,,,0.00,weatherlink.com 1.10,2013-05-22 10:21:00,
2013-05-22 06:36:00,63.9,62.0,29.77,SSW,196,0.0,0.0,92,0.00,,,0.00,weatherlink.com 1.10,2013-05-22 10:36:00,
2013-05-22 06:51:00,63.8,62.0,29.77,SSW,196,0.0,0.0,92,0.00,,,0.00,weatherlink.com 1.10,2013-05-22 10:51:00,
2013-05-22 07:06:00,63.7,62.0,29.77,SSW,196,0.0,0.0,93,0.00,,,0.00,weatherlink.com 1.10,2013-05-22 11:06:00,
2013-05-22 07:21:00,63.9,62.0,29.78,SSW,196,0.0,0.0,93,0.00,,,0.00,weatherlink.com 1.10,2013-05-22 11:21:00,
2013-05-22 07:36:00,64.4,62.0,29.78,SSW,196,0.0,0.0,92,0.00,,,0.00,weatherlink.com 1.10,2013-05-22 11:36:00,
2013-05-22 07:51:00,64.7,62.0,29.77,SSW,196,0.0,0.0,92,0.00,,,0.00,weatherlink.com 1.10,2013-05-22 11:51:00,
2013-05-22 08:06:00,65.1,63.0,29.78,SSW,196,0.0,0.0,91,0.00,,,0.00,weatherlink.com 1.10,2013-05-22 12:06:00,
2013-05-22 08:21:00,65.3,62.0,29.77,SSW,196,0.0,0.0,90,0.00,,,0.00,weatherlink.com 1.10,2013-05-22 12:21:00,
2013-05-22 08:36:00,65.9,63.0,29.78,SSW,196,0.0,0.0,90,0.00,,,0.00,weatherlink.com 1.10,2013-05-22 12:36:00,
2013-05-22 08:51:00,66.7,63.0,29.78,SSW,207,0.0,0.0,89,0.00,,,0.00,weatherlink.com 1.10,2013-05-22 12:51:00,
2013-05-22 09:06:00,67.6,64.0,29.79,SSW,192,0.0,0.0,87,0.00,,,0.00,weatherlink.com 1.10,2013-05-22 13:06:00,
2013-05-22 09:21:00,68.4,64.0,29.79,South,189,0.0,0.0,85,0.00,,,0.00,weatherlink.com 1.10,2013-05-22 13:21:00,
2013-05-22 09:36:00,69.1,64.0,29.79,SSW,201,0.0,4.0,84,0.00,,,0.00,weatherlink.com 1.10,2013-05-22 13:36:00,
2013-05-22 09:51:00,69.7,64.0,29.79,South,177,0.0,0.0,82,0.00,,,0.00,weatherlink.com 1.10,2013-05-22 13:51:00,
2013-05-22 10:06:00,70.2,64.0,29.79,SE,139,0.0,0.0,80,0.00,,,0.00,weatherlink.com 1.10,2013-05-22 14:06:00,
2013-05-22 10:21:00,70.9,64.0,29.78,SSE,163,0.0,1.0,78,0.00,,,0.00,weatherlink.com 1.10,2013-05-22 14:21:00,
2013-05-22 10:36:00,71.6,64.0,29.77,South,188,0.0,0.0,77,0.00,,,0.00,weatherlink.com 1.10,2013-05-22 14:36:00,
2013-05-22 10:51:00,71.9,64.0,29.78,SSW,206,0.0,1.0,75,0.00,,,0.00,weatherlink.com 1.10,2013-05-22 14:51:00,
2013-05-22 11:06:00,71.9,64.0,29.78,SSW,209,0.0,4.0,76,0.00,,,0.00,weatherlink.com 1.10,2013-05-22 15:06:00,
2013-05-22 11:21:00,72.1,64.0,29.78,SSW,198,0.0,0.0,75,0.00,,,0.00,weatherlink.com 1.10,2013-05-22 15:21:00,
2013-05-22 11:36:00,72.1,63.0,29.78,SSW,199,2.0,4.0,74,0.00,,,0.00,weatherlink.com 1.10,2013-05-22 15:36:00,
2013-05-22 11:51:00,73.3,65.0,29.78,SSW,194,2.0,6.0,74,0.00,,,0.00,weatherlink.com 1.10,2013-05-22 15:51:00,
2013-05-22 12:06:00,74.3,65.0,29.77,South,169,0.0,0.0,73,0.00,,,0.00,weatherlink.com 1.10,2013-05-22 16:06:00,
2013-05-22 12:21:00,73.6,64.0,29.77,South,170,0.0,0.0,73,0.00,,,0.00,weatherlink.com 1.10,2013-05-22 16:21:00,
2013-05-22 12:36:00,74.2,65.0,29.77,South,187,0.0,0.0,72,0.00,,,0.00,weatherlink.com 1.10,2013-05-22 16:36:00,
2013-05-22 12:51:00,75.1,64.0,29.76,SSW,210,0.0,0.0,69,0.00,,,0.00,weatherlink.com 1.10,2013-05-22 16:51:00,
2013-05-22 13:06:00,76.2,64.0,29.76,SSW,192,0.0,7.0,66,0.00,,,0.00,weatherlink.com 1.10,2013-05-22 17:06:00,
2013-05-22 13:21:00,77.3,64.0,29.76,South,189,0.0,6.0,64,0.00,,,0.00,weatherlink.com 1.10,2013-05-22 17:21:00,
2013-05-22 13:36:00,76.9,64.0,29.75,South,173,1.0,8.0,64,0.00,,,0.00,weatherlink.com 1.10,2013-05-22 17:36:00,
2013-05-22 13:51:00,77.7,65.0,29.75,SSW,200,2.0,6.0,66,0.00,,,0.00,weatherlink.com 1.10,2013-05-22 17:51:00,
2013-05-22 14:06:00,78.0,63.0,29.75,SSW,205,3.0,7.0,60,0.00,,,0.00,weatherlink.com 1.10,2013-05-22 18:06:00,
2013-05-22 14:21:00,78.0,65.0,29.75,SSW,209,0.0,5.0,64,0.00,,,0.00,weatherlink.com 1.10,2013-05-22 18:21:00,
2013-05-22 14:36:00,77.7,65.0,29.75,SSE,150,0.0,5.0,65,0.00,,,0.00,weatherlink.com 1.10,2013-05-22 18:36:00,
2013-05-22 14:51:00,77.4,66.0,29.75,SSE,166,0.0,7.0,68,0.00,,,0.00,weatherlink.com 1.10,2013-05-22 18:51:00,
2013-05-22 15:06:00,77.0,64.0,29.75,SSW,202,1.0,6.0,65,0.00,,,0.00,weatherlink.com 1.10,2013-05-22 19:06:00,
2013-05-22 15:21:00,76.5,64.0,29.74,SSE,163,0.0,4.0,65,0.00,,,0.00,weatherlink.com 1.10,2013-05-22 19:21:00,
2013-05-22 15:36:00,77.7,65.0,29.73,SSW,194,0.0,8.0,66,0.00,,,0.00,weatherlink.com 1.10,2013-05-22 19:36:00,
2013-05-22 15:51:00,78.2,65.0,29.73,South,182,0.0,7.0,65,0.00,,,0.00,weatherlink.com 1.10,2013-05-22 19:51:00,
2013-05-22 16:06:00,77.8,65.0,29.72,SSW,202,0.0,7.0,65,0.00,,,0.00,weatherlink.com 1.10,2013-05-22 20:06:00,
2013-05-22 16:21:00,78.4,66.0,29.71,South,188,0.0,4.0,65,0.00,,,0.00,weatherlink.com 1.10,2013-05-22 20:21:00,
2013-05-22 16:36:00,78.0,65.0,29.71,SSW,200,0.0,7.0,65,0.00,,,0.00,weatherlink.com 1.10,2013-05-22 20:36:00,
2013-05-22 16:51:00,78.2,65.0,29.70,SSW,192,0.0,5.0,63,0.00,,,0.00,weatherlink.com 1.10,2013-05-22 20:51:00,
2013-05-22 17:06:00,77.9,65.0,29.69,SSW,200,3.0,5.0,64,0.00,,,0.00,weatherlink.com 1.10,2013-05-22 21:06:00,
2013-05-22 17:21:00,77.1,65.0,29.69,South,182,0.0,7.0,67,0.00,,,0.00,weatherlink.com 1.10,2013-05-22 21:21:00,
2013-05-22 17:36:00,76.2,66.0,29.69,SSW,197,0.0,0.0,70,0.00,,,0.00,weatherlink.com 1.10,2013-05-22 21:36:00,
2013-05-22 17:51:00,76.4,66.0,29.69,SSW,196,1.0,4.0,71,0.00,,,0.00,weatherlink.com 1.10,2013-05-22 21:51:00,
2013-05-22 18:06:00,76.9,66.0,29.70,SSW,207,0.0,4.0,69,0.00,,,0.00,weatherlink.com 1.10,2013-05-22 22:06:00,
2013-05-22 18:21:00,76.0,66.0,29.69,South,184,0.0,5.0,70,0.00,,,0.00,weatherlink.com 1.10,2013-05-22 22:21:00,
2013-05-22 18:36:00,75.4,66.0,29.69,SW,220,0.0,4.0,72,0.00,,,0.00,weatherlink.com 1.10,2013-05-22 22:36:00,
2013-05-22 18:51:00,72.2,67.0,29.70,SSE,163,0.0,0.0,83,0.02,,,0.02,weatherlink.com 1.10,2013-05-22 22:51:00,
2013-05-22 19:07:00,70.4,67.0,29.72,South,175,0.0,1.0,89,0.02,,,0.02,weatherlink.com 1.10,2013-05-22 23:07:00,
2013-05-22 19:22:00,68.8,66.0,29.72,SSE,164,0.0,5.0,92,0.09,,,0.09,weatherlink.com 1.10,2013-05-22 23:22:00,
2013-05-22 19:37:00,68.3,66.0,29.73,SSE,165,0.0,0.0,93,0.09,,,0.09,weatherlink.com 1.10,2013-05-22 23:37:00,
2013-05-22 19:52:00,68.0,66.0,29.73,SSE,165,0.0,0.0,94,0.07,,,0.09,weatherlink.com 1.10,2013-05-22 23:52:00,
2013-05-22 20:07:00,67.4,65.0,29.73,SSE,165,0.0,0.0,93,0.07,,,0.09,weatherlink.com 1.10,2013-05-23 00:07:00,
2013-05-22 20:22:00,67.1,65.0,29.73,SSE,166,0.0,0.0,94,0.00,,,0.09,weatherlink.com 1.10,2013-05-23 00:22:00,
2013-05-22 20:37:00,66.8,65.0,29.73,SSE,166,0.0,0.0,95,0.00,,,0.09,weatherlink.com 1.10,2013-05-23 00:37:00,
2013-05-22 20:52:00,66.7,65.0,29.73,SSE,166,0.0,0.0,95,0.00,,,0.09,weatherlink.com 1.10,2013-05-23 00:52:00,
2013-05-22 21:07:00,66.6,65.0,29.73,SSE,166,0.0,0.0,95,0.00,,,0.09,weatherlink.com 1.10,2013-05-23 01:07:00,
2013-05-22 21:22:00,66.4,65.0,29.73,SSE,166,0.0,0.0,96,0.00,,,0.09,weatherlink.com 1.10,2013-05-23 01:22:00,
2013-05-22 21:37:00,66.2,65.0,29.73,SSE,166,0.0,0.0,96,0.00,,,0.09,weatherlink.com 1.10,2013-05-23 01:37:00,
2013-05-22 21:52:00,66.0,65.0,29.73,SSE,166,0.0,0.0,96,0.00,,,0.09,weatherlink.com 1.10,2013-05-23 01:52:00,
2013-05-22 22:07:00,65.9,65.0,29.74,SSE,166,0.0,0.0,97,0.00,,,0.09,weatherlink.com 1.10,2013-05-23 02:07:00,
2013-05-22 22:22:00,65.8,65.0,29.75,SSE,166,0.0,0.0,97,0.00,,,0.09,weatherlink.com 1.10,2013-05-23 02:22:00,
2013-05-22 22:37:00,65.7,65.0,29.75,SSE,166,0.0,0.0,97,0.00,,,0.09,weatherlink.com 1.10,2013-05-23 02:37:00,
2013-05-22 22:52:00,65.6,65.0,29.75,SSE,166,0.0,0.0,97,0.00,,,0.09,weatherlink.com 1.10,2013-05-23 02:52:00,
2013-05-22 23:22:00,65.2,64.0,29.75,South,188,0.0,0.0,97,0.00,,,0.09,weatherlink.com 1.10,2013-05-23 03:22:00,
2013-05-22 23:36:00,65.0,64.0,29.75,South,188,0.0,0.0,97,0.00,,,0.09,weatherlink.com 1.10,2013-05-23 03:36:00,
2013-05-22 23:52:00,64.8,64.0,29.75,South,188,0.0,0.0,97,0.00,,,0.09,weatherlink.com 1.10,2013-05-23 03:52:00,